Year,Month,Day,Hour,Minute,Value (Times are PST for windspeed in km/hr)
2016,03,11,00,00,2.80
2016,03,11,00,01,4.60
2016,03,11,00,02,3.80
2016,03,11,00,03,1.50
2016,03,11,00,04,1.10
2016,03,11,00,05,3.90
2016,03,11,00,06,4.20
2016,03,11,00,07,5.10
2016,03,11,00,08,4.80
2016,03,11,00,09,3.90
2016,03,11,00,10,3.50
2016,03,11,00,11,3.40
2016,03,11,00,12,2.10
2016,03,11,00,13,0.60
2016,03,11,00,14,0.10
2016,03,11,00,15,0.70
2016,03,11,00,16,3.00
2016,03,11,00,17,4.30
2016,03,11,00,18,1.30
2016,03,11,00,19,2.20
2016,03,11,00,20,2.20
2016,03,11,00,21,0.60
2016,03,11,00,22,0.60
2016,03,11,00,23,0.90
2016,03,11,00,24,1.50
2016,03,11,00,25,2.30
2016,03,11,00,26,2.20
2016,03,11,00,27,1.90
2016,03,11,00,28,1.40
2016,03,11,00,29,2.70
2016,03,11,00,30,3.70
2016,03,11,00,31,3.30
2016,03,11,00,32,2.10
2016,03,11,00,33,1.90
2016,03,11,00,34,3.50
2016,03,11,00,35,3.20
2016,03,11,00,36,1.00
2016,03,11,00,37,3.50
2016,03,11,00,38,3.30
2016,03,11,00,39,1.40
2016,03,11,00,40,2.30
2016,03,11,00,41,2.20
2016,03,11,00,42,4.20
2016,03,11,00,43,4.10
2016,03,11,00,44,2.00
2016,03,11,00,45,2.60
2016,03,11,00,46,1.70
2016,03,11,00,47,1.00
2016,03,11,00,48,2.90
2016,03,11,00,49,2.70
2016,03,11,00,50,4.60
2016,03,11,00,51,1.20
2016,03,11,00,52,2.80
2016,03,11,00,53,3.10
2016,03,11,00,54,2.90
2016,03,11,00,55,5.00
2016,03,11,00,56,6.90
2016,03,11,00,57,5.50
2016,03,11,00,58,3.30
2016,03,11,00,59,4.70
2016,03,11,01,00,3.10
2016,03,11,01,01,3.90
2016,03,11,01,02,7.10
2016,03,11,01,03,7.60
2016,03,11,01,04,5.50
2016,03,11,01,05,1.90
2016,03,11,01,06,4.70
2016,03,11,01,07,4.50
2016,03,11,01,08,1.70
2016,03,11,01,09,5.60
2016,03,11,01,10,4.40
2016,03,11,01,11,4.30
2016,03,11,01,12,5.90
2016,03,11,01,13,5.10
2016,03,11,01,14,3.80
2016,03,11,01,15,3.80
2016,03,11,01,16,3.10
2016,03,11,01,17,3.50
2016,03,11,01,18,0.60
2016,03,11,01,19,0.00
2016,03,11,01,20,0.00
2016,03,11,01,21,0.80
2016,03,11,01,22,3.50
2016,03,11,01,23,2.50
2016,03,11,01,24,4.00
2016,03,11,01,25,4.90
2016,03,11,01,26,7.10
2016,03,11,01,27,4.40
2016,03,11,01,28,4.40
2016,03,11,01,29,3.30
2016,03,11,01,30,6.30
2016,03,11,01,31,5.60
2016,03,11,01,32,4.70
2016,03,11,01,33,5.00
2016,03,11,01,34,4.80
2016,03,11,01,35,3.90
2016,03,11,01,36,4.30
2016,03,11,01,37,6.80
2016,03,11,01,38,7.80
2016,03,11,01,39,4.00
2016,03,11,01,40,6.00
2016,03,11,01,41,5.00
2016,03,11,01,42,6.60
2016,03,11,01,43,5.40
2016,03,11,01,44,6.00
2016,03,11,01,45,5.70
2016,03,11,01,46,6.40
2016,03,11,01,47,6.10
2016,03,11,01,48,8.90
2016,03,11,01,49,8.60
2016,03,11,01,50,7.50
2016,03,11,01,51,6.70
2016,03,11,01,52,7.00
2016,03,11,01,53,7.00
2016,03,11,01,54,5.90
2016,03,11,01,55,5.60
2016,03,11,01,56,8.50
2016,03,11,01,57,7.60
2016,03,11,01,58,8.30
2016,03,11,01,59,5.10
2016,03,11,02,00,6.80
2016,03,11,02,01,7.10
2016,03,11,02,02,7.00
2016,03,11,02,03,5.40
2016,03,11,02,04,6.60
2016,03,11,02,05,4.60
2016,03,11,02,06,6.50
2016,03,11,02,07,7.20
2016,03,11,02,08,5.80
2016,03,11,02,09,6.50
2016,03,11,02,10,5.80
2016,03,11,02,11,6.00
2016,03,11,02,12,6.00
2016,03,11,02,13,6.10
2016,03,11,02,14,5.90
2016,03,11,02,15,6.50
2016,03,11,02,16,5.40
2016,03,11,02,17,4.30
2016,03,11,02,18,4.10
2016,03,11,02,19,2.30
2016,03,11,02,20,4.80
2016,03,11,02,21,7.10
2016,03,11,02,22,7.70
2016,03,11,02,23,4.60
2016,03,11,02,24,2.30
2016,03,11,02,25,2.30
2016,03,11,02,26,2.20
2016,03,11,02,27,3.90
2016,03,11,02,28,2.40
2016,03,11,02,29,3.40
2016,03,11,02,30,6.50
2016,03,11,02,31,9.60
2016,03,11,02,32,5.80
2016,03,11,02,33,6.40
2016,03,11,02,34,7.90
2016,03,11,02,35,4.80
2016,03,11,02,36,7.00
2016,03,11,02,37,6.40
2016,03,11,02,38,6.80
2016,03,11,02,39,5.50
2016,03,11,02,40,6.30
2016,03,11,02,41,6.30
2016,03,11,02,42,9.10
2016,03,11,02,43,5.70
2016,03,11,02,44,9.80
2016,03,11,02,45,5.70
2016,03,11,02,46,7.30
2016,03,11,02,47,5.00
2016,03,11,02,48,6.40
2016,03,11,02,49,13.90
2016,03,11,02,50,8.50
2016,03,11,02,51,5.30
2016,03,11,02,52,7.90
2016,03,11,02,53,4.30
2016,03,11,02,54,4.20
2016,03,11,02,55,2.10
2016,03,11,02,56,3.20
2016,03,11,02,57,4.60
2016,03,11,02,58,5.20
2016,03,11,02,59,5.30
2016,03,11,03,00,4.10
2016,03,11,03,01,2.60
2016,03,11,03,02,2.70
2016,03,11,03,03,4.70
2016,03,11,03,04,3.90
2016,03,11,03,05,4.90
2016,03,11,03,06,5.60
2016,03,11,03,07,6.80
2016,03,11,03,08,4.40
2016,03,11,03,09,4.30
2016,03,11,03,10,2.70
2016,03,11,03,11,5.80
2016,03,11,03,12,5.00
2016,03,11,03,13,2.70
2016,03,11,03,14,2.30
2016,03,11,03,15,2.20
2016,03,11,03,16,2.00
2016,03,11,03,17,2.40
2016,03,11,03,18,3.30
2016,03,11,03,19,2.40
2016,03,11,03,20,1.50
2016,03,11,03,21,3.70
2016,03,11,03,22,4.40
2016,03,11,03,23,3.90
2016,03,11,03,24,4.30
2016,03,11,03,25,4.30
2016,03,11,03,26,8.30
2016,03,11,03,27,9.50
2016,03,11,03,28,6.60
2016,03,11,03,29,9.30
2016,03,11,03,30,5.90
2016,03,11,03,31,5.10
2016,03,11,03,32,3.00
2016,03,11,03,33,5.20
2016,03,11,03,34,5.90
2016,03,11,03,35,6.00
2016,03,11,03,36,7.20
2016,03,11,03,37,6.00
2016,03,11,03,38,6.80
2016,03,11,03,39,9.70
2016,03,11,03,40,9.30
2016,03,11,03,41,13.60
2016,03,11,03,42,7.60
2016,03,11,03,43,12.50
2016,03,11,03,44,7.90
2016,03,11,03,45,4.90
2016,03,11,03,46,5.40
2016,03,11,03,47,7.90
2016,03,11,03,48,9.70
2016,03,11,03,49,5.80
2016,03,11,03,50,5.40
2016,03,11,03,51,7.20
2016,03,11,03,52,5.40
2016,03,11,03,53,4.70
2016,03,11,03,54,2.90
2016,03,11,03,55,2.10
2016,03,11,03,56,3.80
2016,03,11,03,57,5.50
2016,03,11,03,58,5.60
2016,03,11,03,59,7.30
2016,03,11,04,00,7.10
2016,03,11,04,01,4.30
2016,03,11,04,02,5.60
2016,03,11,04,03,2.90
2016,03,11,04,04,8.00
2016,03,11,04,05,4.40
2016,03,11,04,06,5.50
2016,03,11,04,07,7.30
2016,03,11,04,08,4.90
2016,03,11,04,09,4.00
2016,03,11,04,10,3.10
2016,03,11,04,11,4.10
2016,03,11,04,12,5.30
2016,03,11,04,13,7.60
2016,03,11,04,14,3.90
2016,03,11,04,15,6.00
2016,03,11,04,16,5.80
2016,03,11,04,17,6.60
2016,03,11,04,18,4.70
2016,03,11,04,19,3.10
2016,03,11,04,20,3.80
2016,03,11,04,21,3.00
2016,03,11,04,22,3.60
2016,03,11,04,23,3.20
2016,03,11,04,24,4.80
2016,03,11,04,25,3.40
2016,03,11,04,26,4.80
2016,03,11,04,27,4.60
2016,03,11,04,28,4.00
2016,03,11,04,29,4.20
2016,03,11,04,30,3.20
2016,03,11,04,31,2.80
2016,03,11,04,32,3.90
2016,03,11,04,33,3.60
2016,03,11,04,34,4.40
2016,03,11,04,35,3.10
2016,03,11,04,36,4.30
2016,03,11,04,37,4.00
2016,03,11,04,38,2.90
2016,03,11,04,39,1.80
2016,03,11,04,40,3.50
2016,03,11,04,41,3.10
2016,03,11,04,42,2.20
2016,03,11,04,43,2.90
2016,03,11,04,44,3.80
2016,03,11,04,45,3.50
2016,03,11,04,46,3.00
2016,03,11,04,47,3.30
2016,03,11,04,48,3.50
2016,03,11,04,49,2.10
2016,03,11,04,50,3.80
2016,03,11,04,51,1.40
2016,03,11,04,52,2.50
2016,03,11,04,53,2.80
2016,03,11,04,54,1.40
2016,03,11,04,55,3.40
2016,03,11,04,56,2.10
2016,03,11,04,57,5.10
2016,03,11,04,58,3.10
2016,03,11,04,59,2.80
2016,03,11,05,00,2.20
2016,03,11,05,01,3.10
2016,03,11,05,02,1.90
2016,03,11,05,03,3.10
2016,03,11,05,04,3.30
2016,03,11,05,05,3.80
2016,03,11,05,06,2.80
2016,03,11,05,07,3.00
2016,03,11,05,08,3.50
2016,03,11,05,09,4.80
2016,03,11,05,10,4.80
2016,03,11,05,11,4.00
2016,03,11,05,12,4.30
2016,03,11,05,13,4.60
2016,03,11,05,14,3.90
2016,03,11,05,15,4.30
2016,03,11,05,16,5.80
2016,03,11,05,17,6.70
2016,03,11,05,18,5.30
2016,03,11,05,19,2.70
2016,03,11,05,20,2.40
2016,03,11,05,21,1.90
2016,03,11,05,22,4.40
2016,03,11,05,23,3.10
2016,03,11,05,24,2.70
2016,03,11,05,25,4.40
2016,03,11,05,26,4.70
2016,03,11,05,27,4.10
2016,03,11,05,28,3.40
2016,03,11,05,29,4.20
2016,03,11,05,30,2.70
2016,03,11,05,31,2.90
2016,03,11,05,32,1.40
2016,03,11,05,33,3.10
2016,03,11,05,34,5.60
2016,03,11,05,35,5.90
2016,03,11,05,36,7.60
2016,03,11,05,37,6.40
2016,03,11,05,38,4.60
2016,03,11,05,39,4.60
2016,03,11,05,40,5.20
2016,03,11,05,41,5.20
2016,03,11,05,42,3.50
2016,03,11,05,43,5.80
2016,03,11,05,44,8.40
2016,03,11,05,45,7.20
2016,03,11,05,46,4.70
2016,03,11,05,47,4.10
2016,03,11,05,48,3.10
2016,03,11,05,49,4.00
2016,03,11,05,50,6.20
2016,03,11,05,51,9.70
2016,03,11,05,52,9.40
2016,03,11,05,53,9.30
2016,03,11,05,54,9.70
2016,03,11,05,55,9.10
2016,03,11,05,56,11.20
2016,03,11,05,57,10.30
2016,03,11,05,58,10.20
2016,03,11,05,59,9.60
2016,03,11,06,00,9.10
2016,03,11,06,01,8.70
2016,03,11,06,02,7.70
2016,03,11,06,03,8.00
2016,03,11,06,04,8.10
2016,03,11,06,05,7.20
2016,03,11,06,06,6.80
2016,03,11,06,07,6.10
2016,03,11,06,08,7.90
2016,03,11,06,09,5.80
2016,03,11,06,10,5.00
2016,03,11,06,11,6.10
2016,03,11,06,12,7.00
2016,03,11,06,13,6.40
2016,03,11,06,14,5.60
2016,03,11,06,15,6.00
2016,03,11,06,16,5.80
2016,03,11,06,17,5.50
2016,03,11,06,18,5.10
2016,03,11,06,19,5.10
2016,03,11,06,20,3.90
2016,03,11,06,21,4.20
2016,03,11,06,22,2.50
2016,03,11,06,23,1.50
2016,03,11,06,24,2.30
2016,03,11,06,25,4.30
2016,03,11,06,26,4.90
2016,03,11,06,27,2.80
2016,03,11,06,28,2.50
2016,03,11,06,29,3.10
2016,03,11,06,30,3.60
2016,03,11,06,31,3.20
2016,03,11,06,32,3.20
2016,03,11,06,33,3.00
2016,03,11,06,34,3.20
2016,03,11,06,35,4.70
2016,03,11,06,36,3.70
2016,03,11,06,37,3.30
2016,03,11,06,38,4.30
2016,03,11,06,39,4.40
2016,03,11,06,40,4.80
2016,03,11,06,41,4.10
2016,03,11,06,42,5.80
2016,03,11,06,43,5.40
2016,03,11,06,44,4.60
2016,03,11,06,45,3.50
2016,03,11,06,46,3.90
2016,03,11,06,47,3.70
2016,03,11,06,48,6.90
2016,03,11,06,49,5.40
2016,03,11,06,50,5.40
2016,03,11,06,51,3.80
2016,03,11,06,52,4.10
2016,03,11,06,53,4.30
2016,03,11,06,54,5.40
2016,03,11,06,55,3.70
2016,03,11,06,56,2.90
2016,03,11,06,57,3.30
2016,03,11,06,58,2.60
2016,03,11,06,59,3.10
2016,03,11,07,00,3.10
2016,03,11,07,01,2.90
2016,03,11,07,02,2.50
2016,03,11,07,03,5.20
2016,03,11,07,04,3.60
2016,03,11,07,05,3.50
2016,03,11,07,06,2.70
2016,03,11,07,07,2.30
2016,03,11,07,08,4.10
2016,03,11,07,09,3.10
2016,03,11,07,10,2.80
2016,03,11,07,11,3.70
2016,03,11,07,12,4.20
2016,03,11,07,13,3.50
2016,03,11,07,14,2.50
2016,03,11,07,15,2.80
2016,03,11,07,16,2.40
2016,03,11,07,17,4.40
2016,03,11,07,18,2.30
2016,03,11,07,19,2.00
2016,03,11,07,20,3.40
2016,03,11,07,21,2.70
2016,03,11,07,22,2.30
2016,03,11,07,23,2.60
2016,03,11,07,24,2.90
2016,03,11,07,25,1.80
2016,03,11,07,26,2.20
2016,03,11,07,27,1.50
2016,03,11,07,28,2.30
2016,03,11,07,29,1.10
2016,03,11,07,30,0.40
2016,03,11,07,31,0.90
2016,03,11,07,32,0.60
2016,03,11,07,33,0.90
2016,03,11,07,34,1.50
2016,03,11,07,35,2.20
2016,03,11,07,36,1.60
2016,03,11,07,37,1.00
2016,03,11,07,38,2.60
2016,03,11,07,39,3.40
2016,03,11,07,40,3.60
2016,03,11,07,41,4.30
2016,03,11,07,42,2.30
2016,03,11,07,43,0.70
2016,03,11,07,44,3.40
2016,03,11,07,45,3.00
2016,03,11,07,46,2.80
2016,03,11,07,47,2.00
2016,03,11,07,48,2.80
2016,03,11,07,49,1.90
2016,03,11,07,50,2.30
2016,03,11,07,51,2.70
2016,03,11,07,52,1.20
2016,03,11,07,53,1.40
2016,03,11,07,54,1.60
2016,03,11,07,55,2.70
2016,03,11,07,56,2.10
2016,03,11,07,57,2.80
2016,03,11,07,58,2.10
2016,03,11,07,59,3.80
2016,03,11,08,00,2.90
2016,03,11,08,01,3.10
2016,03,11,08,02,2.70
2016,03,11,08,03,2.90
2016,03,11,08,04,3.70
2016,03,11,08,05,4.70
2016,03,11,08,06,3.40
2016,03,11,08,07,4.80
2016,03,11,08,08,4.20
2016,03,11,08,09,2.20
2016,03,11,08,10,3.50
2016,03,11,08,11,4.60
2016,03,11,08,12,4.90
2016,03,11,08,13,2.10
2016,03,11,08,14,3.00
2016,03,11,08,15,4.10
2016,03,11,08,16,4.70
2016,03,11,08,17,5.10
2016,03,11,08,18,4.20
2016,03,11,08,19,6.40
2016,03,11,08,20,4.70
2016,03,11,08,21,6.00
2016,03,11,08,22,6.60
2016,03,11,08,23,5.10
2016,03,11,08,24,4.80
2016,03,11,08,25,5.20
2016,03,11,08,26,6.10
2016,03,11,08,27,6.00
2016,03,11,08,28,5.20
2016,03,11,08,29,5.40
2016,03,11,08,30,3.80
2016,03,11,08,31,4.90
2016,03,11,08,32,5.90
2016,03,11,08,33,7.70
2016,03,11,08,34,7.30
2016,03,11,08,35,8.10
2016,03,11,08,36,2.90
2016,03,11,08,37,2.70
2016,03,11,08,38,4.70
2016,03,11,08,39,3.90
2016,03,11,08,40,5.10
2016,03,11,08,41,3.40
2016,03,11,08,42,4.20
2016,03,11,08,43,3.20
2016,03,11,08,44,2.10
2016,03,11,08,45,6.60
2016,03,11,08,46,5.50
2016,03,11,08,47,4.90
2016,03,11,08,48,5.80
2016,03,11,08,49,6.60
2016,03,11,08,50,4.40
2016,03,11,08,51,6.80
2016,03,11,08,52,8.50
2016,03,11,08,53,4.20
2016,03,11,08,54,6.40
2016,03,11,08,55,5.30
2016,03,11,08,56,5.90
2016,03,11,08,57,5.10
2016,03,11,08,58,9.60
2016,03,11,08,59,7.40
2016,03,11,09,00,8.00
2016,03,11,09,01,5.40
2016,03,11,09,02,6.80
2016,03,11,09,03,6.20
2016,03,11,09,04,6.70
2016,03,11,09,05,6.70
2016,03,11,09,06,6.30
2016,03,11,09,07,6.10
2016,03,11,09,08,3.80
2016,03,11,09,09,4.30
2016,03,11,09,10,6.40
2016,03,11,09,11,6.40
2016,03,11,09,12,6.40
2016,03,11,09,13,9.30
2016,03,11,09,14,6.80
2016,03,11,09,15,7.10
2016,03,11,09,16,7.60
2016,03,11,09,17,5.60
2016,03,11,09,18,6.40
2016,03,11,09,19,4.50
2016,03,11,09,20,4.20
2016,03,11,09,21,4.90
2016,03,11,09,22,6.70
2016,03,11,09,23,6.20
2016,03,11,09,24,6.50
2016,03,11,09,25,6.80
2016,03,11,09,26,5.00
2016,03,11,09,27,4.20
2016,03,11,09,28,5.10
2016,03,11,09,29,6.00
2016,03,11,09,30,4.50
2016,03,11,09,31,6.10
2016,03,11,09,32,4.20
2016,03,11,09,33,4.00
2016,03,11,09,34,5.70
2016,03,11,09,35,6.80
2016,03,11,09,36,7.60
2016,03,11,09,37,5.10
2016,03,11,09,38,5.30
2016,03,11,09,39,3.60
2016,03,11,09,40,5.20
2016,03,11,09,41,4.00
2016,03,11,09,42,2.00
2016,03,11,09,43,3.60
2016,03,11,09,44,4.20
2016,03,11,09,45,4.30
2016,03,11,09,46,3.90
2016,03,11,09,47,5.80
2016,03,11,09,48,9.20
2016,03,11,09,49,8.90
2016,03,11,09,50,6.40
2016,03,11,09,51,7.80
2016,03,11,09,52,7.50
2016,03,11,09,53,9.10
2016,03,11,09,54,7.70
2016,03,11,09,55,7.00
2016,03,11,09,56,6.40
2016,03,11,09,57,7.70
2016,03,11,09,58,6.30
2016,03,11,09,59,5.30
2016,03,11,10,00,7.80
2016,03,11,10,01,5.60
2016,03,11,10,02,6.40
2016,03,11,10,03,4.70
2016,03,11,10,04,4.60
2016,03,11,10,05,6.80
2016,03,11,10,06,6.60
2016,03,11,10,07,13.00
2016,03,11,10,08,11.70
2016,03,11,10,09,11.80
2016,03,11,10,10,9.20
2016,03,11,10,11,9.80
2016,03,11,10,12,4.40
2016,03,11,10,13,5.00
2016,03,11,10,14,7.00
2016,03,11,10,15,7.60
2016,03,11,10,16,6.00
2016,03,11,10,17,5.50
2016,03,11,10,18,8.00
2016,03,11,10,19,6.60
2016,03,11,10,20,8.40
2016,03,11,10,21,6.90
2016,03,11,10,22,7.60
2016,03,11,10,23,8.10
2016,03,11,10,24,9.00
2016,03,11,10,25,10.50
2016,03,11,10,26,8.40
2016,03,11,10,27,9.00
2016,03,11,10,28,9.70
2016,03,11,10,29,6.80
2016,03,11,10,30,8.10
2016,03,11,10,31,8.40
2016,03,11,10,32,11.00
2016,03,11,10,33,11.90
2016,03,11,10,34,9.70
2016,03,11,10,35,9.10
2016,03,11,10,36,7.60
2016,03,11,10,37,7.40
2016,03,11,10,38,10.90
2016,03,11,10,39,8.90
2016,03,11,10,40,10.40
2016,03,11,10,41,9.70
2016,03,11,10,42,11.30
2016,03,11,10,43,8.00
2016,03,11,10,44,7.80
2016,03,11,10,45,7.10
2016,03,11,10,46,9.40
2016,03,11,10,47,7.70
2016,03,11,10,48,11.80
2016,03,11,10,49,13.00
2016,03,11,10,50,9.70
2016,03,11,10,51,8.20
2016,03,11,10,52,6.30
2016,03,11,10,53,6.10
2016,03,11,10,54,5.50
2016,03,11,10,55,6.30
2016,03,11,10,56,7.20
2016,03,11,10,57,10.70
2016,03,11,10,58,9.10
2016,03,11,10,59,6.30
2016,03,11,11,00,9.80
2016,03,11,11,01,8.80
2016,03,11,11,02,7.80
2016,03,11,11,03,8.10
2016,03,11,11,04,8.20
2016,03,11,11,05,6.70
2016,03,11,11,06,5.00
2016,03,11,11,07,8.70
2016,03,11,11,08,5.60
2016,03,11,11,09,4.20
2016,03,11,11,10,3.70
2016,03,11,11,11,6.50
2016,03,11,11,12,5.60
2016,03,11,11,13,3.50
2016,03,11,11,14,5.00
2016,03,11,11,15,5.00
2016,03,11,11,16,4.40
2016,03,11,11,17,7.60
2016,03,11,11,18,5.70
2016,03,11,11,19,4.30
2016,03,11,11,20,9.10
2016,03,11,11,21,9.70
2016,03,11,11,22,8.60
2016,03,11,11,23,10.00
2016,03,11,11,24,9.00
2016,03,11,11,25,8.50
2016,03,11,11,26,10.10
2016,03,11,11,27,10.10
2016,03,11,11,28,8.50
2016,03,11,11,29,4.90
2016,03,11,11,30,8.90
2016,03,11,11,31,5.80
2016,03,11,11,32,6.30
2016,03,11,11,33,4.80
2016,03,11,11,34,3.70
2016,03,11,11,35,4.20
2016,03,11,11,36,6.30
2016,03,11,11,37,5.10
2016,03,11,11,38,4.30
2016,03,11,11,39,6.70
2016,03,11,11,40,3.80
2016,03,11,11,41,4.30
2016,03,11,11,42,8.30
2016,03,11,11,43,8.30
2016,03,11,11,44,14.60
2016,03,11,11,45,8.10
2016,03,11,11,46,12.10
2016,03,11,11,47,12.40
2016,03,11,11,48,13.40
2016,03,11,11,49,12.30
2016,03,11,11,50,9.40
2016,03,11,11,51,10.40
2016,03,11,11,52,9.10
2016,03,11,11,53,11.80
2016,03,11,11,54,9.00
2016,03,11,11,55,9.70
2016,03,11,11,56,9.10
2016,03,11,11,57,13.00
2016,03,11,11,58,13.40
2016,03,11,11,59,13.60
2016,03,11,12,00,10.00
2016,03,11,12,01,9.60
2016,03,11,12,02,9.30
2016,03,11,12,03,10.00
2016,03,11,12,04,7.00
2016,03,11,12,05,9.90
2016,03,11,12,06,9.70
2016,03,11,12,07,9.60
2016,03,11,12,08,7.70
2016,03,11,12,09,12.10
2016,03,11,12,10,13.10
2016,03,11,12,11,12.00
2016,03,11,12,12,13.00
2016,03,11,12,13,13.20
2016,03,11,12,14,13.40
2016,03,11,12,15,14.10
2016,03,11,12,16,8.40
2016,03,11,12,17,11.20
2016,03,11,12,18,8.90
2016,03,11,12,19,6.00
2016,03,11,12,20,6.60
2016,03,11,12,21,7.40
2016,03,11,12,22,9.40
2016,03,11,12,23,11.80
2016,03,11,12,24,11.90
2016,03,11,12,25,8.40
2016,03,11,12,26,8.40
2016,03,11,12,27,12.70
2016,03,11,12,28,7.60
2016,03,11,12,29,8.10
2016,03,11,12,30,8.10
2016,03,11,12,31,11.50
2016,03,11,12,32,8.10
2016,03,11,12,33,9.70
2016,03,11,12,34,14.10
2016,03,11,12,35,17.10
2016,03,11,12,36,14.90
2016,03,11,12,37,13.70
2016,03,11,12,38,13.20
2016,03,11,12,39,15.30
2016,03,11,12,40,13.10
2016,03,11,12,41,14.20
2016,03,11,12,42,13.10
2016,03,11,12,43,12.80
2016,03,11,12,44,11.30
2016,03,11,12,45,9.10
2016,03,11,12,46,11.30
2016,03,11,12,47,8.10
2016,03,11,12,48,11.60
2016,03,11,12,49,12.20
2016,03,11,12,50,10.70
2016,03,11,12,51,12.60
2016,03,11,12,52,14.10
2016,03,11,12,53,11.40
2016,03,11,12,54,7.80
2016,03,11,12,55,9.70
2016,03,11,12,56,11.10
2016,03,11,12,57,14.30
2016,03,11,12,58,10.20
2016,03,11,12,59,12.70
2016,03,11,13,00,8.00
2016,03,11,13,01,7.80
2016,03,11,13,02,12.50
2016,03,11,13,03,12.00
2016,03,11,13,04,6.10
2016,03,11,13,05,8.60
2016,03,11,13,06,8.80
2016,03,11,13,07,8.70
2016,03,11,13,08,7.70
2016,03,11,13,09,4.80
2016,03,11,13,10,9.00
2016,03,11,13,11,8.90
2016,03,11,13,12,9.20
2016,03,11,13,13,6.00
2016,03,11,13,14,8.10
2016,03,11,13,15,7.60
2016,03,11,13,16,8.00
2016,03,11,13,17,11.40
2016,03,11,13,18,8.80
2016,03,11,13,19,9.20
2016,03,11,13,20,11.70
2016,03,11,13,21,11.50
2016,03,11,13,22,10.60
2016,03,11,13,23,9.70
2016,03,11,13,24,8.90
2016,03,11,13,25,6.90
2016,03,11,13,26,7.80
2016,03,11,13,27,10.40
2016,03,11,13,28,12.20
2016,03,11,13,29,10.40
2016,03,11,13,30,6.10
2016,03,11,13,31,8.60
2016,03,11,13,32,9.40
2016,03,11,13,33,10.20
2016,03,11,13,34,9.30
2016,03,11,13,35,7.50
2016,03,11,13,36,7.40
2016,03,11,13,37,6.10
2016,03,11,13,38,6.30
2016,03,11,13,39,6.40
2016,03,11,13,40,6.70
2016,03,11,13,41,7.70
2016,03,11,13,42,9.60
2016,03,11,13,43,4.70
2016,03,11,13,44,5.70
2016,03,11,13,45,6.80
2016,03,11,13,46,6.30
2016,03,11,13,47,6.70
2016,03,11,13,48,5.30
2016,03,11,13,49,5.30
2016,03,11,13,50,3.60
2016,03,11,13,51,6.80
2016,03,11,13,52,5.80
2016,03,11,13,53,10.50
2016,03,11,13,54,9.50
2016,03,11,13,55,10.90
2016,03,11,13,56,8.90
2016,03,11,13,57,12.00
2016,03,11,13,58,8.60
2016,03,11,13,59,11.90
2016,03,11,14,00,8.70
2016,03,11,14,01,7.10
2016,03,11,14,02,8.20
2016,03,11,14,03,7.70
2016,03,11,14,04,8.40
2016,03,11,14,05,8.70
2016,03,11,14,06,8.10
2016,03,11,14,07,9.70
2016,03,11,14,08,7.80
2016,03,11,14,09,8.90
2016,03,11,14,10,6.40
2016,03,11,14,11,6.80
2016,03,11,14,12,7.00
2016,03,11,14,13,5.40
2016,03,11,14,14,6.70
2016,03,11,14,15,5.20
2016,03,11,14,16,6.60
2016,03,11,14,17,9.80
2016,03,11,14,18,9.50
2016,03,11,14,19,9.30
2016,03,11,14,20,8.50
2016,03,11,14,21,12.00
2016,03,11,14,22,8.00
2016,03,11,14,23,7.80
2016,03,11,14,24,6.80
2016,03,11,14,25,5.90
2016,03,11,14,26,5.50
2016,03,11,14,27,4.90
2016,03,11,14,28,5.40
2016,03,11,14,29,8.30
2016,03,11,14,30,8.10
2016,03,11,14,31,5.70
2016,03,11,14,32,5.50
2016,03,11,14,33,6.40
2016,03,11,14,34,5.60
2016,03,11,14,35,5.60
2016,03,11,14,36,7.80
2016,03,11,14,37,7.80
2016,03,11,14,38,5.30
2016,03,11,14,39,6.60
2016,03,11,14,40,8.20
2016,03,11,14,41,10.90
2016,03,11,14,42,9.20
2016,03,11,14,43,8.60
2016,03,11,14,44,5.20
2016,03,11,14,45,4.70
2016,03,11,14,46,4.30
2016,03,11,14,47,7.50
2016,03,11,14,48,6.00
2016,03,11,14,49,3.80
2016,03,11,14,50,5.30
2016,03,11,14,51,7.20
2016,03,11,14,52,4.50
2016,03,11,14,53,6.40
2016,03,11,14,54,5.60
2016,03,11,14,55,6.80
2016,03,11,14,56,7.20
2016,03,11,14,57,7.10
2016,03,11,14,58,6.60
2016,03,11,14,59,6.10
2016,03,11,15,00,6.90
2016,03,11,15,01,8.20
2016,03,11,15,02,6.80
2016,03,11,15,03,6.90
2016,03,11,15,04,7.10
2016,03,11,15,05,6.20
2016,03,11,15,06,8.50
2016,03,11,15,07,8.50
2016,03,11,15,08,7.80
2016,03,11,15,09,5.80
2016,03,11,15,10,6.50
2016,03,11,15,11,6.30
2016,03,11,15,12,7.10
2016,03,11,15,13,5.50
2016,03,11,15,14,4.00
2016,03,11,15,15,3.60
2016,03,11,15,16,2.70
2016,03,11,15,17,3.50
2016,03,11,15,18,7.90
2016,03,11,15,19,7.00
2016,03,11,15,20,9.30
2016,03,11,15,21,8.80
2016,03,11,15,22,7.00
2016,03,11,15,23,5.30
2016,03,11,15,24,5.00
2016,03,11,15,25,7.20
2016,03,11,15,26,7.50
2016,03,11,15,27,4.50
2016,03,11,15,28,6.80
2016,03,11,15,29,8.90
2016,03,11,15,30,6.00
2016,03,11,15,31,7.20
2016,03,11,15,32,8.80
2016,03,11,15,33,11.00
2016,03,11,15,34,8.10
2016,03,11,15,35,7.10
2016,03,11,15,36,7.20
2016,03,11,15,37,9.60
2016,03,11,15,38,8.50
2016,03,11,15,39,6.10
2016,03,11,15,40,6.10
2016,03,11,15,41,5.40
2016,03,11,15,42,8.80
2016,03,11,15,43,7.90
2016,03,11,15,44,7.60
2016,03,11,15,45,7.10
2016,03,11,15,46,6.00
2016,03,11,15,47,5.70
2016,03,11,15,48,6.00
2016,03,11,15,49,4.10
2016,03,11,15,50,7.20
2016,03,11,15,51,5.10
2016,03,11,15,52,5.70
2016,03,11,15,53,9.60
2016,03,11,15,54,8.50
2016,03,11,15,55,6.20
2016,03,11,15,56,4.90
2016,03,11,15,57,7.50
2016,03,11,15,58,8.80
2016,03,11,15,59,6.70
2016,03,11,16,00,7.70
2016,03,11,16,01,6.70
2016,03,11,16,02,4.40
2016,03,11,16,03,5.10
2016,03,11,16,04,4.70
2016,03,11,16,05,5.40
2016,03,11,16,06,6.40
2016,03,11,16,07,4.90
2016,03,11,16,08,3.00
2016,03,11,16,09,2.40
2016,03,11,16,10,3.00
2016,03,11,16,11,4.30
2016,03,11,16,12,3.80
2016,03,11,16,13,5.60
2016,03,11,16,14,4.40
2016,03,11,16,15,3.80
2016,03,11,16,16,4.40
2016,03,11,16,17,7.20
2016,03,11,16,18,8.60
2016,03,11,16,19,9.70
2016,03,11,16,20,7.90
2016,03,11,16,21,4.10
2016,03,11,16,22,3.60
2016,03,11,16,23,2.30
2016,03,11,16,24,3.50
2016,03,11,16,25,8.30
2016,03,11,16,26,8.10
2016,03,11,16,27,6.00
2016,03,11,16,28,5.10
2016,03,11,16,29,5.80
2016,03,11,16,30,8.40
2016,03,11,16,31,5.60
2016,03,11,16,32,4.70
2016,03,11,16,33,7.80
2016,03,11,16,34,8.10
2016,03,11,16,35,4.50
2016,03,11,16,36,3.50
2016,03,11,16,37,4.60
2016,03,11,16,38,2.60
2016,03,11,16,39,4.70
2016,03,11,16,40,4.60
2016,03,11,16,41,4.20
2016,03,11,16,42,4.40
2016,03,11,16,43,2.70
2016,03,11,16,44,2.70
2016,03,11,16,45,3.60
2016,03,11,16,46,2.10
2016,03,11,16,47,5.40
2016,03,11,16,48,4.80
2016,03,11,16,49,5.00
2016,03,11,16,50,5.20
2016,03,11,16,51,4.40
2016,03,11,16,52,2.90
2016,03,11,16,53,4.70
2016,03,11,16,54,4.30
2016,03,11,16,55,4.60
2016,03,11,16,56,5.60
2016,03,11,16,57,5.20
2016,03,11,16,58,2.70
2016,03,11,16,59,2.60
2016,03,11,17,00,3.20
2016,03,11,17,01,4.00
2016,03,11,17,02,2.70
2016,03,11,17,03,1.90
2016,03,11,17,04,1.80
2016,03,11,17,05,2.60
2016,03,11,17,06,3.10
2016,03,11,17,07,3.90
2016,03,11,17,08,3.90
2016,03,11,17,09,3.30
2016,03,11,17,10,4.20
2016,03,11,17,11,3.10
2016,03,11,17,12,5.10
2016,03,11,17,13,5.50
2016,03,11,17,14,3.90
2016,03,11,17,15,2.00
2016,03,11,17,16,1.90
2016,03,11,17,17,1.90
2016,03,11,17,18,2.90
2016,03,11,17,19,3.50
2016,03,11,17,20,2.80
2016,03,11,17,21,3.60
2016,03,11,17,22,1.70
2016,03,11,17,23,3.50
2016,03,11,17,24,3.00
2016,03,11,17,25,3.80
2016,03,11,17,26,5.10
2016,03,11,17,27,6.00
2016,03,11,17,28,4.60
2016,03,11,17,29,5.10
2016,03,11,17,30,4.70
2016,03,11,17,31,3.90
2016,03,11,17,32,3.50
2016,03,11,17,33,3.60
2016,03,11,17,34,4.10
2016,03,11,17,35,3.10
2016,03,11,17,36,3.90
2016,03,11,17,37,5.00
2016,03,11,17,38,5.30
2016,03,11,17,39,3.50
2016,03,11,17,40,4.20
2016,03,11,17,41,3.10
2016,03,11,17,42,5.10
2016,03,11,17,43,3.50
2016,03,11,17,44,2.00
2016,03,11,17,45,2.70
2016,03,11,17,46,1.40
2016,03,11,17,47,3.10
2016,03,11,17,48,3.20
2016,03,11,17,49,2.80
2016,03,11,17,50,1.60
2016,03,11,17,51,3.80
2016,03,11,17,52,3.60
2016,03,11,17,53,2.20
2016,03,11,17,54,4.60
2016,03,11,17,55,2.50
2016,03,11,17,56,5.30
2016,03,11,17,57,4.70
2016,03,11,17,58,4.40
2016,03,11,17,59,6.80
2016,03,11,18,00,5.20
2016,03,11,18,01,4.50
2016,03,11,18,02,5.50